sat.trackr.live / text

‹ back to catalog

STARLINK-5267

NORAD 55655 · 2023-021AD

PAYLOAD ACTIVE UNKNOWN

§ Identity

Operator
Country
US
Launch date
2023-02-17
Launch site
AFWTR
Launch vehicle
Mass (kg)
RCS (m²)

Purposes: comms

External: N2YO · Heavens-Above · Gunter

§ Orbital elements

Epoch: 2026-05-24T22:36:21.691872Z

Period
96.11 min
Inclination
69.9994°
Eccentricity
0.0002943
Mean motion
14.98329640 rev/d
Perigee alt
570.0 km
Apogee alt
574.1 km
Semi-major
6,950.2 km
B*
5.1619e-5
RAAN
332.3067°
Arg perigee
268.1427°
Mean anomaly
91.9395°
Rev number
18,069

§ Raw data

STARLINK-52671 55655U 23021AD  26144.94191773  .00000523  00000+0  51619-4 0  99972 55655  69.9994 332.3067 0002943 268.1427  91.9395 14.98329640180692

JSON: /api/v1/satellites/55655 · /tle

For live sub-satellite position, see the globe view (requires WebGL).

§ Visibility from observer

Set your observer location to see the next 7 days of passes ≥ 10°. The values pass through the URL so the page stays shareable.

No JS? Fill the form by hand. The geolocation button needs JavaScript.